This is the latest recevied weather packets stored in our database for station/object IK2ILW-4. If no packets are shown the sender has not sent any weather packets the latest 10 day(s).
| Time | Temp. | Humidity | Pressure | Rain* | Wind** | Luminosity | Snow |
|---|---|---|---|---|---|---|---|
| 1777549069 | 5.56° C | 87% | 1022.5 hPa | 1.02 mm | - | 476 W/m² | - |
| 1777548785 | 5° C | 86% | 1022.5 hPa | 1.02 mm | - | 538 W/m² | - |
| 1777548469 | 5° C | 86% | 1022.6 hPa | 1.02 mm | - | 427 W/m² | - |
| 1777548156 | 5° C | 85% | 1022.6 hPa | 1.02 mm | - | 394 W/m² | - |
| 1777547906 | 5° C | 86% | 1022.6 hPa | 1.02 mm | - | 276 W/m² | - |
| 1777547578 | 5° C | 87% | 1022.6 hPa | 1.02 mm | - | 388 W/m² | - |
| 1777547279 | 4.44° C | 86% | 1022.6 hPa | 1.02 mm | - | 327 W/m² | - |
| 1777546962 | 4.44° C | 88% | 1022.6 hPa | 1.02 mm | - | 322 W/m² | - |
| 1777546681 | 4.44° C | 88% | 1022.7 hPa | 1.02 mm | - | 316 W/m² | - |
| 1777546366 | 4.44° C | 90% | 1022.7 hPa | 1.02 mm | - | 290 W/m² | - |
| 1777546054 | 3.89° C | 90% | 1022.7 hPa | 1.02 mm | - | 272 W/m² | - |
| 1777545770 | 3.89° C | 90% | 1022.5 hPa | 1.02 mm | - | 232 W/m² | - |
| 1777545455 | 3.89° C | 90% | 1022.5 hPa | 1.02 mm | - | 167 W/m² | - |
| 1777545171 | 3.89° C | 90% | 1022.5 hPa | 1.02 mm | - | 141 W/m² | - |
| 1777544855 | 3.89° C | 91% | 1022.4 hPa | 1.02 mm | - | 128 W/m² | - |
| 1777544572 | 3.89° C | 92% | 1022.4 hPa | 1.02 mm | - | 155 W/m² | - |
| 1777544261 | 3.89° C | 92% | 1022.4 hPa | 1.02 mm | - | 169 W/m² | - |
| 1777543980 | 3.89° C | 93% | 1022.3 hPa | 1.02 mm | - | 130 W/m² | - |
| 1777543664 | 3.89° C | 93% | 1022.3 hPa | 1.02 mm | - | 132 W/m² | - |
| 1777543381 | 3.89° C | 93% | 1022.3 hPa | 1.02 mm | - | 100 W/m² | - |
| 1777543064 | 3.89° C | 93% | 1022.1 hPa | 1.02 mm | - | 83 W/m² | - |
| 1777535561 | 6.11° C | 93% | 1021 hPa | 1.02 mm | - | 179 W/m² | - |
| 1777535279 | 6.11° C | 94% | 1021 hPa | 1.02 mm | - | 179 W/m² | - |
| 1777534964 | 6.11° C | 93% | 1020.9 hPa | 1.02 mm | - | 148 W/m² | - |
| 1777534653 | 6.11° C | 93% | 1020.9 hPa | 1.02 mm | - | 137 W/m² | - |
* Rain since midnight (hover to see other rain measurements)
** Current wind speed in m/s (hover to see current wind gust speed)